Погода в Гурьевке

Украина / Николаевская область     47°07′23″N   31°52′09″E
темп.,
°C
ветер,
м/с
пор.,
м/с
влажн.,
%
обл.,
%
осадки,
мм/ч
давл.,
гПа
погр.,
м
18 мая, вт
вт1800:00+14ююз48905 0.3 1005190
03:00+13ю49945 0.3 1004223
06:00+13ююв489420 0.0 1004218
09:00+18ююв677182 0.1 1003600
12:00+16ю81081100 1.2 1003799
15:00+18ю9117343 2.1 10011091
18:00+17ююз810700 0.2 1001847
21:00+14ююз33755 1.1 100037
19 мая, ср
ср1900:00+12ююз410855 0.4 1000193
03:00+10юз47948 0.4 1001171
06:00+11ююз35935 0.4 1002112
09:00+14ю457896 0.6 1002871
12:00+16с126939 0.1 1003882
15:00+19зсз1096454 0.5 10051295
18:00+14зсз81476100 0.2 10071011
21:00+13з7137743 0.2 1009710
20 мая, чт
чт2000:00+11з511775 0.0 1010311
03:00+10зюз49795 0.0 1010158
06:00+10з35893 0.0 1010102
09:00+16зсз2265100 0.0 1010504
12:00+18зюз335799 0.1 10111109
15:00+18сз3262100 0.6 1010673
18:00+15ссв4483100 1.6 1011247
21:00+13св489285 2.6 1010257
21 мая, пт
пт2100:00+13св61192100 1.0 1011344
03:00+13св61489100 1.0 1011546
06:00+13св71588100 0.0 1011605
09:00+16св81373100 0.0 1011871
12:00+18св8966100 0.0 10111059
15:00+19ссв7964100 0.0 10111103
18:00+18ссв81271100 0.0 1011658
21:00+16ссв71375100 0.0 1012491
22 мая, сб
сб2200:00+15ссв61374100 0.0 1011418
03:00+14с51177100 0.0 1011353
06:00+13с51086100 0.3 1011288
09:00+18ссв7971100 0.3 1012632
12:00+21ссв6763100 0.0 1012905
15:00+24ссв5554100 0.0 10111482
18:00+23с7661100 0.0 10101082
21:00+18ссв4882100 0.0 1011156